User: anonymous   Login
Location: Irma
(52.9170°N, 111.2330°W)
Time: 11:20:52
(UTC-07:00)
Language:

Meteor 1-24 Rocket - Orbit

View from above orbital plane
View from above orbital plane
View from above satellite
View from above satellite

Ground track
Ground track

The orbit data is extracted from the following two-line orbital elements,

1 08800U 76032B   16339.35968503  .00000192  00000-0  97375-4 0  9992
2 08800  81.2537  46.8744 0095284  17.9444 342.5052 14.10086563 90727
Epoch (UTC): 04 December 2016 08:37:56
Eccentricity: 0.0095284
inclination: 81.2537°
perigee height: 790 km
apogee height: 928 km
right ascension of ascending node: 46.8744°
argument of perigee: 17.9444°
revolutions per day: 14.10086563
mean anomaly at epoch: 342.5052°
orbit number at epoch: 9072

The dashed part of the orbit path shows where the satellite is in the earth's shadow,  

DLR